Miscellaneous Local Product
Issued by NWS Hastings, NE

Home | Current Version | Previous Version | Text Only | Print | Product List | Glossary On
Versions: 1 2 3 4 5 6 7 8 9 10 11 12 13 14 15 16 17 18 19 20 21 22 23 24 25 26 27 28 29 30 31 32 33 34 35 36 37 38 39 40 41 42 43 44 45 46 47 48 49 50
000
AXUS43 KGID 231402
MISGRI

GID CWA HOURLY WEATHER ROUNDUP
NATIONAL WEATHER SERVICE HASTINGS NE
800 AM CST FRI FEB 23 2018

NOTE: "FAIR" INDICATES FEW OR NO CLOUDS BELOW 12,000 FEET WITH NO
SIGNIFICANT WEATHER AND/OR OBSTRUCTIONS TO VISIBILITY.

...SOUTH CENTRAL NEBRASKA...

CITY           SKY/WX    TMP DP  RH WIND       PRES   REMARKS
GRAND ISLAND   CLEAR     17  13  84 N12       30.20F WCI   4
KEARNEY        NOT AVBL
HASTINGS       CLEAR     18  14  84 NW8       30.21R WCI   8
ORD            CLOUDY    14  12  92 NW9       30.21R WCI   2
YORK           CLOUDY    18  18 100 NW8       30.22R WCI   7
AURORA         CLOUDY    17  14  88 NW12      30.21R WCI   5
LEXINGTON      CLEAR      9   5  86 W6        30.20S WCI  -1
HOLDREGE       PTCLDY    16  16  98 NW6       30.19R WCI   8
HEBRON         CLOUDY    22  19  89 NW5       30.23S WCI  16

...NEBRASKA PANHANDLE...

CITY           SKY/WX    TMP DP  RH WIND       PRES   REMARKS
CHADRON        CLEAR    -10 -15  78 W7        30.18S WCI -25
ALLIANCE       CLEAR     -5  -9  83 CALM      30.11R FOG
SCOTTSBLUFF    CLEAR      3   0  87 CALM      30.12R
SIDNEY         CLOUDY    13   9  84 W3        30.11R FOG

...WESTERN AND NORTH CENTRAL NEBRASKA...

CITY           SKY/WX    TMP DP  RH WIND       PRES   REMARKS
VALENTINE      CLEAR     -1  -6  79 W9        30.20S WCI -16
AINSWORTH      CLEAR      9   7  92 NW7       30.20R WCI  -3
ONEILL         CLOUDY    18  16  94 NW13      30.22R WCI   4
BROKEN BOW     CLOUDY    16  13  88 N8        30.20R WCI   5
IMPERIAL       CLEAR     12  10  92 NW7       30.16R WCI   1
NORTH PLATTE   PTCLDY     4  -1  80 CALM      30.20R HAZE
MCCOOK         FOG       17  16  95 NW6       30.18S VSB 1/4 WCI   9

...EASTERN NEBRASKA...

CITY           SKY/WX    TMP DP  RH WIND       PRES   REMARKS
NORFOLK        CLOUDY    19  17  92 NW7       30.22R WCI  10
SO SIOUX CITY  CLOUDY    20  17  88 NW13      30.22R WCI   7
TEKAMAH        PTCLDY    20  16  84 W12       30.25R WCI   8
COLUMBUS       CLOUDY    16  15  96 NW10      30.25R WCI   4
ALBION         CLOUDY    20  19  93 NW8       30.23R WCI  11
OMAHA EPPLEY   CLOUDY    24  21  88 NW12      30.24R WCI  13
OFFUTT AFB     CLOUDY    21  19  92 NW6       30.22S WCI  14
MILLARD        CLOUDY    24  21  89 NW6       30.24S WCI  17
LINCOLN        CLOUDY    22  18  85 NW8       30.25R WCI  12
NEBRASKA CITY  PTCLDY    24  24 100 W6        30.24R FOG     WCI  17
BEATRICE       CLOUDY    21  20  96 CALM      30.24R FOG
FALLS CITY     CLEAR     27  25  92 W3        30.26R

...NORTHERN KANSAS...

CITY           SKY/WX    TMP DP  RH WIND       PRES   REMARKS
GOODLAND       FOG       17  15  92 W7        30.12R VSB 1/4 WCI   8
HILL CITY      CLOUDY    22  22 100 NW6       30.21R FOG     WCI  14
NORTON         FOG       21  18  86 NW7       30.17F VSB 1/2 WCI  13
PHILLIPSBURG   CLOUDY    19  19 100 NW8       30.22R FOG     WCI   9
SMITH CENTER   CLEAR     12  10  92 CALM      30.23R
BELOIT         CLEAR     16  12  86 CALM      30.26R
HAYS           CLOUDY    24  23  96 NE5       30.24R FOG     WCI  18
RUSSELL        CLOUDY    26  24  92 CALM      30.23R
CONCORDIA      CLOUDY    20  19  96 CALM      30.26R
SALINA         CLOUDY    28  26  92 N5        30.29R WCI  23
TOPEKA         CLOUDY    33  30  88 NW7       30.27R WCI  27



USA.gov is the U.S. government's official web portal to all federal, state and local government web resources and services.